Weather History for Yuma MCAS, AZ

Change the Weather History Date:

Sunday, September 22, 2013

  Actual Average Record
Temperature  
Mean Temperature 81 °F 87 °F  
Max Temperature 91 °F 99 °F 112 °F (1949)
Min Temperature 70 °F 75 °F 55 °F (1941)
Degree Days  
Heating Degree Days 0 0  
Month to date heating degree days 0 0  
Since 1 July heating degree days 0 0  
Cooling Degree Days 16 22  
Month to date cooling degree days 587 560  
Year to date cooling degree days 4285 4013  
Growing Degree Days 30 (Base 50)    
Moisture  
Dew Point 38 °F    
Average Humidity 25    
Maximum Humidity 41    
Minimum Humidity 9    
Precipitation  
Precipitation 0.00 in 0.01 in 0.20 in (1905)
Month to date precipitation 0.51 0.41  
Year to date precipitation 2.31 2.50  
Sea Level Pressure  
Sea Level Pressure 29.69 in    
Wind  
Wind Speed 10 mph (NNW)    
Max Wind Speed 20 mph    
Max Gust Speed 26 mph    
Visibility 9 miles    
Events      
T = Trace of Precipitation, MM = Missing Value Source: NWS Daily Summary

Daily Weather History Graph

Daily Weather History Graph

Search for Another Location

Airport:

Trip Planner

Search our weather history database for the weather conditions in past years. The results will help you decide how hot, cold, wet, or windy it might be!

Date:

Astronomy

Sep. 22, 2013 Rise Set
Actual Time 6:26 AM MST 6:34 PM MST
Civil Twilight 6:02 AM MST 6:59 PM MST
Nautical Twilight 5:33 AM MST 7:27 PM MST
Astronomical Twilight 5:04 AM MST 7:56 PM MST
Moon 8:41 PM MST (9/22) 9:38 AM MST (9/22)
Length of Visible Light 12h 56m
Length of Day
12h 07m
Waning Gibbous, 88% of the Moon is Illuminated
Sep 22
Waning Gibbous
Sep 26
Last Quarter
Oct 4
New
Oct 11
First Quarter
Oct 18
Full

Hourly Weather History & Observations

Time (MST) Temp. Dew Point Humidity Pressure Visibility Wind Dir Wind Speed Gust Speed Precip Events Conditions
12:57 AM 78.1 °F 48.0 °F 35% 29.64 in 6.0 mi WNW 13.8 mph 23.0 mph N/A   Haze
1:57 AM 77.0 °F 48.0 °F 36% 29.64 in 10.0 mi WNW 10.4 mph - N/A   Clear
2:57 AM 75.0 °F 46.9 °F 37% 29.63 in 6.0 mi WNW 12.7 mph - N/A   Haze
3:57 AM 73.0 °F 48.0 °F 41% 29.64 in 6.0 mi NNW 9.2 mph - N/A   Haze
4:57 AM 72.0 °F 45.0 °F 38% 29.66 in 6.0 mi NW 18.4 mph 25.3 mph N/A   Haze
5:57 AM 71.1 °F 43.0 °F 36% 29.68 in 6.0 mi NW 6.9 mph - N/A   Haze
6:57 AM 71.1 °F 43.0 °F 36% 29.70 in 6.0 mi NNW 11.5 mph - N/A   Haze
7:57 AM 73.0 °F 44.1 °F 35% 29.72 in 10.0 mi NW 13.8 mph - N/A   Clear
8:57 AM 75.9 °F 44.1 °F 32% 29.73 in 10.0 mi NNW 13.8 mph 23.0 mph N/A   Clear
9:57 AM 79.0 °F 46.0 °F 31% 29.74 in 10.0 mi WNW 15.0 mph - N/A   Clear
10:57 AM 82.0 °F 46.9 °F 29% 29.73 in 10.0 mi NNW 9.2 mph 19.6 mph N/A   Clear
11:57 AM 84.9 °F 45.0 °F 25% 29.72 in 10.0 mi NNW 9.2 mph - N/A   Clear
12:57 PM 87.1 °F 35.1 °F 16% 29.69 in 10.0 mi North 9.2 mph - N/A   Clear
1:57 PM 90.0 °F 24.1 °F 9% 29.67 in 10.0 mi NNW 10.4 mph 18.4 mph N/A   Clear
2:57 PM 90.0 °F 32.0 °F 13% 29.66 in 10.0 mi WNW 9.2 mph - N/A   Clear
3:57 PM 90.0 °F 37.0 °F 15% 29.65 in 10.0 mi NW 9.2 mph 16.1 mph N/A   Clear
4:57 PM 90.0 °F 32.0 °F 13% 29.65 in 10.0 mi WNW 10.4 mph - N/A   Clear
5:57 PM 89.1 °F 24.1 °F 9% 29.65 in 10.0 mi North 11.5 mph - N/A   Clear
6:57 PM 84.9 °F 27.0 °F 12% 29.67 in 10.0 mi North 8.1 mph - N/A   Clear
7:57 PM 82.9 °F 28.0 °F 14% 29.70 in 10.0 mi NNE 6.9 mph - N/A   Clear
8:57 PM 80.1 °F 30.0 °F 16% 29.72 in 10.0 mi North 5.8 mph - N/A   Clear
9:57 PM 78.1 °F 30.9 °F 18% 29.73 in 10.0 mi NNE 8.1 mph - N/A   Clear
10:57 PM 78.1 °F 33.1 °F 19% 29.73 in 10.0 mi North 3.5 mph - N/A   Clear
11:57 PM 77.0 °F 32.0 °F 19% 29.73 in 10.0 mi North 5.8 mph - N/A   Clear